KC0AFB Weather Reports


time (UTC)temp
C
wind
direction
speed
KPH
gust
KPH
rain 1hr
cm
rain 24hr
cm
rain mn
cm
humidity
%
barometer
mb
20260831030512 16 286 6.4 8.0 0.00 2.72 2.72 83 1009.9
20260831030011 16 297 8.0 9.7 0.00 2.72 2.72 83 1009.9
20260831025504 16 340 3.2 3.2 0.00 2.72 2.72 86 1010.0
20260831024959 16 166 0.0 0.0 0.00 2.72 2.72 86 1009.7
20260831024454 16 283 1.6 1.6 0.00 2.72 2.72 85 1009.8
20260831023948 16 53 0.0 1.6 0.00 2.72 2.72 85 1010.0
20260831023446 16 42 1.6 1.6 0.00 2.72 2.72 84 1009.6
20260831022942 16 39 1.6 3.2 0.00 2.72 2.72 82 1009.6
20260831022440 16 25 4.8 4.8 0.00 2.72 2.72 83 1009.8
20260831021935 16 38 3.2 4.8 0.00 2.72 2.72 82 1009.7
20260831021435 16 320 6.4 8.0 0.00 2.72 2.72 81 1009.7
20260831020931 16 311 6.4 8.0 0.00 2.72 2.72 83 1009.9
20260831020430 16 359 8.0 11.3 0.00 2.72 2.72 83 1009.3
20260831015925 16 322 8.0 11.3 0.00 2.72 2.72 84 1009.5
20260831015421 16 279 14.5 17.7 0.00 2.72 2.72 85 1010.0
20260831014917 16 261 14.5 22.5 0.00 2.72 2.72 85 1010.0
20260831014416 16 317 17.7 24.1 0.00 2.72 2.72 85 1010.2
20260831013912 16 0 17.7 25.7 0.00 2.72 2.72 88 1010.2
20260831013408 16 308 14.5 17.7 0.00 2.72 2.72 89 1010.3
20260831012902 16 317 17.7 25.7 0.00 2.72 2.72 90 1010.3
20260831012357 16 273 17.7 24.1 0.13 2.72 2.72 90 1010.2
20260831011852 16 299 24.1 27.4 0.13 2.72 2.72 91 1010.1
20260831011346 16 308 14.5 17.7 0.00 2.69 2.69 92 1009.9
20260831010837 16 295 17.7 20.9 0.36 2.69 2.69 93 1010.3
20260831010336 16 300 16.1 22.5 0.48 2.69 2.69 93 1010.6
20260831005832 16 297 19.3 25.7 0.61 2.64 2.64 94 1010.2
20260831005328 17 286 24.1 27.4 1.19 2.62 2.62 94 1010.2
20260831004827 17 274 14.5 17.7 4.67 2.54 2.54 93 1010.5
20260831004324 17 288 17.7 22.5 7.62 2.44 2.44 93 1010.4
20260831003819 18 285 32.2 40.2 4.55 1.88 1.88 92 1010.1
20260831003316 20 256 20.9 37.0 0.00 1.12 1.12 84 1010.0
20260831002815 21 265 16.1 20.9 0.00 1.12 1.12 81 1009.5
20260831002308 23 247 12.9 16.1 0.00 1.12 1.12 83 1008.9
20260831001804 23 170 9.7 11.3 0.00 1.12 1.12 84 1007.2
20260831001259 23 142 6.4 8.0 0.00 1.12 1.12 84 1006.8
20260831000757 24 122 4.8 8.0 0.00 1.12 1.12 83 1006.7
20260831000257 24 115 9.7 11.3 0.00 1.12 1.12 83 1006.6
20260830235755 24 125 11.3 14.5 0.00 1.12 1.12 82 1006.4
20260830235250 25 122 12.9 14.5 0.00 1.12 1.12 82 1006.5
20260830234745 25 97 12.9 16.1 0.00 1.12 1.12 81 1006.2
20260830234241 25 153 11.3 12.9 0.00 1.12 1.12 81 1006.2
20260830233737 25 143 12.9 16.1 0.00 1.12 1.12 81 1006.3
20260830233232 25 91 6.4 8.0 0.00 1.12 1.12 80 1006.5
20260830232727 25 108 6.4 9.7 0.00 1.12 1.12 80 1006.6
20260830232223 25 131 11.3 12.9 0.00 1.12 1.12 79 1006.6
20260830231720 25 114 8.0 12.9 0.00 1.12 1.12 79 1006.7
20260830231219 25 98 11.3 12.9 0.00 1.12 1.12 79 1006.6
20260830230714 25 81 8.0 11.3 0.00 1.12 1.12 79 1006.4
20260830230209 25 85 14.5 16.1 0.00 1.12 1.12 78 1006.5
20260830225703 25 127 8.0 9.7 0.00 1.12 1.12 78 1006.4
20260830225158 25 93 9.7 11.3 0.00 1.12 1.12 77 1006.3
20260830224657 26 135 8.0 11.3 0.00 1.12 1.12 77 1006.2
20260830224153 26 100 14.5 17.7 0.00 1.12 1.12 76 1006.2
20260830223649 26 78 11.3 16.1 0.00 1.12 1.12 77 1006.2
20260830223144 26 106 11.3 14.5 0.00 1.12 1.12 77 1006.5
20260830222639 26 80 9.7 14.5 0.00 1.12 1.12 76 1006.5
20260830222134 26 109 11.3 12.9 0.00 1.12 1.12 77 1006.5
20260830221629 26 140 9.7 11.3 0.00 1.12 1.12 76 1006.7
20260830221120 26 94 14.5 16.1 0.00 1.12 1.12 76 1006.6
20260830220615 26 102 17.7 22.5 0.00 1.12 1.12 77 1006.4
20260830220108 26 109 16.1 20.9 0.00 1.12 1.12 76 1006.6
20260830215607 26 106 11.3 16.1 0.00 1.12 1.12 75 1006.4
20260830215101 26 99 11.3 14.5 0.00 1.12 1.12 76 1006.4
20260830214556 26 73 11.3 14.5 0.00 1.12 1.12 77 1006.5
20260830214051 26 130 8.0 11.3 0.00 1.12 1.12 76 1006.8
20260830213545 27 82 11.3 12.9 0.00 1.12 1.12 74 1006.5
20260830213041 26 75 8.0 9.7 0.00 1.12 1.12 75 1006.9
20260830212537 27 60 11.3 14.5 0.00 1.12 1.12 74 1006.7
20260830212032 26 105 11.3 12.9 0.00 1.12 1.12 76 1006.8
20260830211526 27 83 12.9 14.5 0.00 1.12 1.12 76 1007.4
20260830211020 26 82 6.4 11.3 0.00 1.12 1.12 77 1007.5
20260830210515 26 102 11.3 12.9 0.00 1.12 1.12 78 1007.5
20260830210014 26 70 11.3 12.9 0.00 1.12 1.12 78 1007.8
20260830205507 26 101 8.0 9.7 0.00 1.12 1.12 78 1007.8
20260830205003 26 137 6.4 9.7 0.00 1.12 1.12 79 1007.5
20260830204501 26 102 8.0 11.3 0.00 1.12 1.12 79 1007.8
20260830203956 26 63 4.8 4.8 0.00 1.12 1.12 79 1008.1
20260830203452 26 78 9.7 11.3 0.00 1.12 1.12 79 1007.8
20260830202951 26 68 8.0 9.7 0.00 1.12 1.12 77 1007.9
20260830202446 26 55 11.3 12.9 0.00 1.12 1.12 77 1007.7
20260830201943 26 63 8.0 9.7 0.00 1.12 1.12 77 1007.9
20260830201441 26 48 6.4 9.7 0.00 1.12 1.12 79 1007.8
20260830200937 26 67 11.3 14.5 0.00 1.12 1.12 77 1007.8
20260830200437 26 84 8.0 11.3 0.00 1.12 1.12 79 1007.8
20260830195932 26 110 8.0 9.7 0.00 1.12 1.12 76 1008.1
20260830195427 26 58 8.0 11.3 0.00 1.12 1.12 76 1008.0
20260830194925 25 64 8.0 9.7 0.00 1.12 1.12 78 1007.7
20260830194424 25 85 9.7 12.9 0.00 1.12 1.12 78 1008.1
20260830193924 25 74 8.0 11.3 0.00 1.12 1.12 78 1007.9
20260830193423 26 116 9.7 11.3 0.00 1.12 1.12 76 1008.0
20260830192919 25 93 6.4 8.0 0.00 1.12 1.12 79 1008.2
20260830192414 25 126 11.3 12.9 0.00 1.12 1.12 78 1008.0
20260830191909 25 100 6.4 8.0 0.00 1.12 1.12 78 1008.1
20260830191408 25 68 8.0 9.7 0.00 1.12 1.12 80 1008.2
20260830190904 25 111 11.3 12.9 0.00 1.12 1.12 79 1008.3
20260830190359 25 84 6.4 8.0 0.00 1.12 1.12 80 1008.4
20260830185858 25 71 6.4 9.7 0.00 1.12 1.12 81 1008.3
20260830185353 25 54 8.0 12.9 0.00 1.12 1.12 82 1008.2
20260830184848 25 79 12.9 14.5 0.00 1.12 1.12 82 1008.4
20260830184347 24 86 4.8 4.8 0.00 1.12 1.12 83 1008.5
20260830183842 24 76 6.4 11.3 0.00 1.12 1.12 84 1008.7
20260830183336 24 62 6.4 8.0 0.00 1.12 1.12 84 1008.6
20260830182827 24 58 9.7 11.3 0.00 1.12 1.12 84 1008.7
20260830182322 24 61 8.0 9.7 0.00 1.12 1.12 84 1008.9
20260830181818 23 86 12.9 14.5 0.00 1.12 1.12 84 1008.9
20260830181314 23 60 9.7 11.3 0.00 1.12 1.12 84 1009.0
20260830180813 23 77 9.7 12.9 0.00 1.12 1.12 85 1009.0
20260830180307 23 63 8.0 9.7 0.00 1.12 1.12 86 1009.2
20260830175802 23 142 8.0 9.7 0.00 1.12 1.12 87 1009.3
20260830175257 23 131 9.7 11.3 0.00 1.12 1.12 87 1009.3
20260830174756 23 101 8.0 11.3 0.00 1.12 1.12 87 1009.4
20260830174252 23 127 8.0 9.7 0.00 1.12 1.12 88 1009.4
20260830173751 23 79 4.8 4.8 0.00 1.12 1.12 87 1009.5
20260830173247 22 132 9.7 12.9 0.00 1.12 1.12 87 1009.8
20260830172743 22 81 6.4 9.7 0.00 1.12 1.12 88 1009.4
20260830172240 22 104 9.7 11.3 0.00 1.12 1.12 88 1009.7
20260830171735 22 54 8.0 11.3 0.00 1.12 1.12 89 1009.6
20260830171230 22 115 9.7 11.3 0.00 1.12 1.12 89 1009.5
20260830170725 22 109 11.3 12.9 0.00 1.12 1.12 88 1009.6
20260830170224 22 142 6.4 9.7 0.00 1.12 1.12 89 1009.3
20260830165723 22 135 9.7 12.9 0.00 1.12 1.12 88 1009.3
20260830165219 22 153 9.7 12.9 0.00 1.12 1.12 89 1009.4
20260830164715 22 89 11.3 12.9 0.00 1.12 1.12 89 1009.2
20260830164211 22 80 9.7 11.3 0.00 1.12 1.12 90 1009.2
20260830163708 22 91 12.9 14.5 0.00 1.12 1.12 90 1009.6
20260830163203 22 141 8.0 9.7 0.00 1.12 1.12 90 1009.3
20260830162657 22 93 8.0 11.3 0.00 1.12 1.12 91 1009.2
20260830162153 22 137 11.3 12.9 0.00 1.12 1.12 91 1009.2
20260830161648 21 83 6.4 9.7 0.00 1.12 1.12 92 1009.4
20260830161143 21 59 8.0 9.7 0.00 1.12 1.12 92 1009.0
20260830160640 21 69 6.4 8.0 0.00 1.12 1.12 92 1009.0
20260830160139 21 64 9.7 11.3 0.00 1.12 1.12 92 1009.0
20260830155636 21 113 6.4 8.0 0.00 1.12 1.12 93 1009.7
20260830155131 21 61 4.8 8.0 0.00 1.12 1.12 93 1009.5
20260830154626 21 118 4.8 4.8 0.00 1.12 1.12 93 1009.3
20260830154122 21 91 4.8 4.8 0.00 1.12 1.12 93 1009.5
20260830153618 20 109 6.4 8.0 0.00 1.12 1.12 94 1009.5
20260830153118 20 122 4.8 8.0 0.00 1.12 1.12 94 1009.3
20260830152618 20 84 3.2 3.2 0.00 1.12 1.12 94 1009.6
20260830152117 20 137 8.0 11.3 0.00 1.12 1.12 94 1009.4
20260830151612 20 98 8.0 9.7 0.00 1.12 1.12 94 1009.5
20260830151107 20 125 8.0 9.7 0.00 1.12 1.12 94 1009.4
20260830150606 20 124 4.8 4.8 0.00 1.12 1.12 94 1009.6
20260830150101 20 124 4.8 4.8 0.00 1.12 1.12 94 1009.5
20260830145601 20 143 9.7 12.9 0.00 1.12 1.12 94 1009.2
20260830145056 20 110 9.7 9.7 0.00 1.12 1.12 94 1009.0
20260830144552 20 95 9.7 12.9 0.00 1.12 1.12 94 1009.2
20260830144048 20 112 4.8 8.0 0.00 1.12 1.12 94 1009.0
20260830143543 20 96 9.7 11.3 0.00 1.12 1.12 94 1009.2
20260830143041 20 90 9.7 11.3 0.00 1.12 1.12 94 1009.3
20260830142537 20 113 11.3 14.5 0.00 1.12 1.12 94 1009.2
20260830142032 20 85 8.0 8.0 0.00 1.12 1.12 94 1009.4
20260830141527 20 132 8.0 9.7 0.00 1.12 1.12 94 1009.3
20260830141022 20 120 8.0 11.3 0.00 1.12 1.12 94 1009.5
20260830140521 20 115 11.3 11.3 0.00 1.12 1.12 94 1009.4
20260830140018 20 99 9.7 11.3 0.00 1.12 1.12 94 1009.4
20260830135512 20 113 8.0 12.9 0.00 1.12 1.12 94 1009.4
20260830135007 20 103 6.4 8.0 0.00 1.12 1.12 94 1009.5
20260830134503 20 100 11.3 11.3 0.00 1.12 1.12 94 1009.6
20260830133958 20 93 9.7 12.9 0.00 1.12 1.12 94 1009.3
20260830133454 20 100 9.7 11.3 0.00 1.12 1.12 94 1009.4
20260830132949 20 74 11.3 14.5 0.00 1.12 1.12 94 1009.2
20260830132445 20 65 12.9 17.7 0.00 1.12 1.12 94 1009.3
20260830131944 20 75 11.3 12.9 0.00 1.12 1.12 94 1009.5
20260830131443 20 76 6.4 11.3 0.00 1.12 1.12 95 1009.4
20260830130938 20 89 8.0 9.7 0.00 1.12 1.12 95 1009.7
20260830130434 19 85 6.4 9.7 0.00 1.12 1.12 95 1009.5
20260830125932 19 75 4.8 4.8 0.00 1.12 1.12 95 1009.6
20260830125428 19 73 6.4 8.0 0.00 1.12 1.12 95 1009.6
20260830124926 19 85 4.8 8.0 0.00 1.12 1.12 95 1009.4
20260830124421 19 76 8.0 9.7 0.00 1.12 1.12 95 1009.4
20260830123918 19 48 11.3 12.9 0.00 1.12 1.12 95 1009.6
20260830123414 19 62 4.8 4.8 0.00 1.12 1.12 95 1009.6
20260830122912 19 60 6.4 8.0 0.00 1.12 1.12 95 1009.6
20260830122407 19 44 4.8 4.8 0.00 1.12 1.12 95 1009.6
20260830121906 19 71 6.4 8.0 0.00 1.12 1.12 95 1009.2
20260830121402 19 53 8.0 12.9 0.00 1.12 1.12 95 1009.2
20260830120856 19 58 6.4 8.0 0.00 1.12 1.12 95 1009.2
20260830120352 19 65 9.7 11.3 0.00 1.12 1.12 95 1009.3
20260830115848 19 61 8.0 9.7 0.00 1.12 1.12 95 1009.0
20260830115344 19 54 8.0 11.3 0.00 1.12 1.12 95 1009.0
20260830114839 19 41 6.4 11.3 0.00 1.12 1.12 95 1009.2
20260830114336 19 68 6.4 9.7 0.00 1.12 1.12 95 1009.2
20260830113831 19 48 8.0 11.3 0.00 1.12 1.12 95 1009.3
20260830113326 19 56 8.0 11.3 0.00 1.12 1.12 95 1009.4
20260830112822 19 68 4.8 4.8 0.00 1.12 1.12 95 1009.2
20260830112317 19 72 6.4 9.7 0.00 1.12 1.12 95 1009.3
20260830111813 19 56 8.0 11.3 0.00 1.12 1.12 95 1008.9
20260830111309 19 84 4.8 8.0 0.00 1.12 1.12 95 1008.8
20260830110808 19 67 4.8 4.8 0.00 1.12 1.12 95 1008.8
20260830110305 19 89 4.8 8.0 0.00 1.12 1.12 95 1008.9
20260830105804 19 64 4.8 4.8 0.00 1.12 1.12 95 1008.7
20260830105300 19 38 4.8 4.8 0.00 1.12 1.12 95 1008.4
20260830104756 19 65 4.8 8.0 0.00 1.12 1.12 95 1008.4
20260830104253 19 63 4.8 8.0 0.00 1.12 1.12 95 1008.4
20260830103751 20 60 8.0 9.7 0.00 1.12 1.12 95 1008.3
20260830103247 20 66 4.8 8.0 0.00 1.12 1.12 95 1008.4
20260830102739 20 72 6.4 8.0 0.00 1.12 1.12 95 1008.4
20260830102236 20 62 8.0 9.7 0.00 1.12 1.12 95 1008.4
20260830101731 20 72 12.9 16.1 0.00 1.12 1.12 95 1008.2
20260830101226 20 71 6.4 8.0 0.00 1.12 1.12 95 1008.4
20260830100721 20 65 4.8 4.8 0.00 1.12 1.12 95 1008.2
20260830100220 20 64 6.4 8.0 0.00 1.12 1.12 95 1008.3
20260830095719 20 63 6.4 8.0 0.00 1.12 1.12 95 1008.3
20260830095216 20 73 6.4 8.0 0.00 1.12 1.12 95 1008.3
20260830094711 20 57 4.8 4.8 0.00 1.12 1.12 95 1008.4
20260830094207 20 52 3.2 3.2 0.00 1.12 1.12 95 1008.3
20260830093702 20 67 3.2 3.2 0.00 1.12 1.12 95 1008.3
20260830093158 20 35 4.8 4.8 0.00 1.12 1.12 95 1008.1
20260830092658 20 32 6.4 8.0 0.00 1.12 1.12 95 1008.3
20260830092155 20 34 3.2 3.2 0.00 1.12 1.12 95 1008.2
20260830091650 20 45 1.6 3.2 0.00 1.12 1.12 95 1008.4
20260830091149 20 69 0.0 0.0 0.00 1.12 1.12 95 1008.3
20260830090644 21 74 0.0 0.0 0.00 1.12 1.12 95 1008.0
20260830090139 21 73 1.6 3.2 0.00 1.12 1.12 95 1008.0
20260830085638 21 81 1.6 1.6 0.00 1.12 1.12 95 1008.2
20260830085135 21 54 3.2 3.2 0.00 1.12 1.12 95 1008.6
20260830084630 21 54 1.6 3.2 0.00 1.12 1.12 95 1008.9
20260830084125 21 37 6.4 8.0 0.00 1.12 1.12 95 1008.7
20260830083620 21 49 4.8 4.8 0.18 1.12 1.12 95 1009.2
20260830083120 21 58 4.8 4.8 0.18 1.12 1.12 95 1008.9
20260830082615 21 66 4.8 8.0 0.13 1.09 1.09 95 1009.2
20260830082111 21 95 3.2 3.2 0.13 1.09 1.09 95 1009.0
20260830081607 21 143 3.2 3.2 0.18 1.07 1.07 95 1008.7
20260830081105 21 125 3.2 3.2 0.61 1.07 1.07 95 1008.9
20260830080600 21 126 8.0 11.3 0.71 1.04 1.04 95 1009.0
20260830080055 21 140 3.2 4.8 1.68 0.99 0.99 95 1008.9
20260830075551 21 131 8.0 9.7 4.14 0.91 0.91 94 1008.8
20260830075051 21 172 4.8 8.0 3.35 0.69 0.69 94 1009.2
20260830074547 21 143 9.7 11.3 1.55 0.25 0.25 94 1009.6
20260830074042 21 157 8.0 9.7 0.79 0.13 0.13 93 1009.7
20260830073538 21 130 3.2 3.2 0.00 0.00 0.00 93 1009.8
20260830073033 21 137 4.8 4.8 0.00 0.00 0.00 93 1010.0
20260830072528 21 93 8.0 9.7 0.00 0.00 0.00 92 1009.5
20260830072023 21 86 9.7 12.9 0.00 0.00 0.00 92 1009.4
20260830071519 21 118 8.0 9.7 0.00 0.00 0.00 92 1009.5
20260830071016 21 94 11.3 12.9 0.00 0.00 0.00 92 1009.6
20260830070511 21 80 8.0 9.7 0.00 0.00 0.00 92 1009.7
20260830070011 21 98 9.7 11.3 0.00 0.00 0.00 92 1009.7
20260830065510 21 89 11.3 12.9 0.00 0.00 0.00 92 1009.6
20260830065009 21 87 12.9 14.5 0.00 0.00 0.00 92 1009.4
20260830064504 21 99 11.3 12.9 0.00 0.00 0.00 92 1009.4
20260830063959 21 99 9.7 12.9 0.00 0.00 0.00 92 1009.2
20260830063458 21 82 11.3 14.5 0.00 0.00 0.00 92 1009.2
20260830062957 21 63 11.3 12.9 0.00 0.00 0.00 92 1009.5
20260830062457 21 55 11.3 12.9 0.00 0.00 0.00 92 1009.4
20260830061952 21 77 9.7 11.3 0.00 0.00 0.00 92 1009.4
20260830061447 21 87 8.0 11.3 0.00 0.00 0.00 92 1009.3
20260830060943 21 122 8.0 11.3 0.00 0.00 0.00 92 1009.2
20260830060434 21 83 12.9 14.5 0.00 0.00 0.00 92 1008.9
20260830055929 21 89 11.3 14.5 0.00 0.00 0.00 92 1008.9
20260830055425 21 73 11.3 14.5 0.00 0.00 0.00 92 1008.8
20260830054920 21 60 9.7 11.3 0.00 0.00 0.00 92 1008.8
20260830054416 21 65 8.0 11.3 0.00 0.00 0.00 92 1009.0
20260830053911 21 63 11.3 14.5 0.00 0.00 0.00 92 1009.2
20260830053407 21 79 4.8 8.0 0.00 0.00 0.00 92 1009.5
20260830052906 21 69 11.3 14.5 0.00 0.00 0.00 92 1009.4
20260830052401 21 67 11.3 12.9 0.00 0.00 0.00 92 1009.5
20260830051856 21 84 8.0 11.3 0.00 0.00 0.00 92 1009.5
20260830051352 21 75 9.7 11.3 0.00 0.00 0.00 92 1009.6
20260830050851 21 87 9.7 9.7 0.00 0.00 0.00 92 1009.5
20260830050346 21 61 6.4 8.0 0.00 0.00 0.00 92 1009.7
20260830045844 21 65 8.0 9.7 0.00 0.00 0.00 92 1009.6
20260830045339 21 94 9.7 12.9 0.00 0.00 0.00 92 1009.8
20260830044838 21 70 9.7 12.9 0.00 0.00 0.00 92 1009.5
20260830044335 21 68 12.9 14.5 0.00 0.00 0.00 92 1009.6
20260830043829 21 68 6.4 8.0 0.00 0.00 0.00 92 1009.8
20260830043324 21 77 8.0 11.3 0.00 0.00 0.00 92 1009.5
20260830042821 21 84 8.0 11.3 0.00 0.00 0.00 91 1009.7
20260830042317 21 84 11.3 12.9 0.00 0.00 0.00 91 1009.6
20260830041815 21 77 8.0 9.7 0.00 0.00 0.00 91 1009.6
20260830041309 21 57 4.8 4.8 0.00 0.00 0.00 91 1009.8
20260830040804 21 46 6.4 8.0 0.00 0.00 0.00 91 1009.6
20260830040301 22 73 9.7 12.9 0.00 0.00 0.00 91 1009.8
20260830035759 22 81 6.4 8.0 0.00 0.00 0.00 91 1009.8
20260830035254 22 75 9.7 11.3 0.00 0.00 0.00 90 1009.8
20260830034749 22 94 9.7 14.5 0.00 0.00 0.00 90 1009.8
20260830034248 22 68 9.7 11.3 0.00 0.00 0.00 89 1009.8
20260830033745 22 85 9.7 12.9 0.00 0.00 0.00 89 1009.8
20260830033244 22 90 8.0 8.0 0.00 0.00 0.00 89 1009.9
20260830032739 22 75 8.0 9.7 0.00 0.00 0.00 89 1009.7
20260830032234 22 64 9.7 11.3 0.00 0.00 0.00 88 1009.9
20260830031729 22 128 16.1 22.5 0.00 0.00 0.00 88 1009.9
20260830031224 22 82 11.3 14.5 0.00 0.00 0.00 88 1010.0